Weather History for PHNL - October, 2013

Change the Weather History Date:

Tuesday, October 22, 2013

  Actual Average Record
Temperature  
Mean Temperature 77 °F 80 °F  
Max Temperature 85 °F 86 °F 91 °F (1966)
Min Temperature 69 °F 73 °F 67 °F (1955)
Degree Days  
Heating Degree Days 0 0  
Month to date heating degree days 0 0  
Since 1 July heating degree days 0 0  
Cooling Degree Days 12 15  
Month to date cooling degree days 302 339  
Year to date cooling degree days 3639 3818  
Growing Degree Days 26 (Base 50)    
Moisture  
Dew Point 65 °F    
Average Humidity 71    
Maximum Humidity 90    
Minimum Humidity 51    
Precipitation  
Precipitation T in 0.07 in 4.89 in (1939)
Month to date precipitation 0.18 1.16  
Year to date precipitation 10.59 10.76  
Snow  
Snow 0.00 in - - ()
Month to date snowfall 0.0  
Since 1 July snowfall 0.0  
Since 1 September snowfall 0.0  
Snow Depth 0.00 in    
Sea Level Pressure  
Sea Level Pressure 29.96 in    
Wind  
Wind Speed 5 mph (NNE)    
Max Wind Speed 17 mph    
Max Gust Speed 24 mph    
Visibility 10 miles    
Events Rain    
T = Trace of Precipitation, MM = Missing Value Source: NWS Daily Summary

Daily Weather History Graph

Daily Weather History Graph

Search for Another Location

Airport or City:

Trip Planner

Search our weather history database for the weather conditions in past years. The results will help you decide how hot, cold, wet, or windy it might be!

Date:

Astronomy

Oct. 22, 2013 Rise Set
Actual Time 6:30 AM HST 6:01 PM HST
Civil Twilight 6:07 AM HST 6:24 PM HST
Nautical Twilight 5:41 AM HST 6:50 PM HST
Astronomical Twilight 5:15 AM HST 7:16 PM HST
Moon 9:09 PM HST (10/22) 9:49 AM HST (10/22)
Length of Visible Light 12h 16m
Length of Day
11h 31m
Waning Gibbous, 85% of the Moon is Illuminated
Oct 22
Waning Gibbous
Oct 26
Last Quarter
Nov 3
New
Nov 9
First Quarter
Nov 17
Full

Hourly Weather History & Observations

Time (HST) Temp. Heat Index Dew Point Humidity Pressure Visibility Wind Dir Wind Speed Gust Speed Precip Events Conditions
12:53 AM 71.1 °F - 64.9 °F 81% 29.99 in 10.0 mi Calm Calm - N/A   Scattered Clouds
1:53 AM 71.1 °F - 64.9 °F 81% 29.98 in 10.0 mi Calm Calm - N/A   Scattered Clouds
2:53 AM 69.1 °F - 64.9 °F 87% 29.96 in 10.0 mi Calm Calm - N/A   Scattered Clouds
3:53 AM 70.0 °F - 64.9 °F 84% 29.96 in 10.0 mi NW 3.5 mph - N/A   Mostly Cloudy
4:53 AM 70.0 °F - 64.9 °F 84% 29.96 in 10.0 mi Calm Calm - N/A   Mostly Cloudy
5:53 AM 69.1 °F - 64.9 °F 87% 29.96 in 10.0 mi North 5.8 mph - N/A   Mostly Cloudy
6:53 AM 70.0 °F - 66.0 °F 87% 29.97 in 10.0 mi North 3.5 mph - N/A   Mostly Cloudy
7:53 AM 73.0 °F - 66.9 °F 81% 29.98 in 10.0 mi North 5.8 mph - N/A   Mostly Cloudy
8:53 AM 79.0 °F - 66.0 °F 64% 29.99 in 10.0 mi North 8.1 mph - N/A   Mostly Cloudy
9:53 AM 80.1 °F 82.1 °F 66.0 °F 62% 29.99 in 10.0 mi Variable 5.8 mph - N/A   Mostly Cloudy
10:53 AM 82.0 °F 84.1 °F 66.0 °F 58% 29.99 in 10.0 mi NNE 5.8 mph - 0.00 in Rain Light Rain
11:53 AM 82.9 °F 84.6 °F 64.9 °F 54% 29.96 in 10.0 mi NNE 9.2 mph 19.6 mph 0.00 in   Mostly Cloudy
12:53 PM 84.0 °F 85.4 °F 64.0 °F 51% 29.94 in 10.0 mi NNE 11.5 mph 19.6 mph N/A   Overcast
1:53 PM 82.9 °F 85.0 °F 66.0 °F 56% 29.93 in 10.0 mi North 15.0 mph 23.0 mph N/A   Overcast
2:53 PM 84.9 °F 86.6 °F 64.9 °F 51% 29.92 in 10.0 mi NNE 11.5 mph - N/A   Overcast
3:53 PM 82.0 °F 83.4 °F 64.0 °F 54% 29.92 in 10.0 mi NNE 11.5 mph - N/A   Mostly Cloudy
4:53 PM 82.0 °F 83.8 °F 64.9 °F 56% 29.92 in 10.0 mi ENE 12.7 mph 20.7 mph N/A   Scattered Clouds
5:53 PM 79.0 °F - 64.9 °F 62% 29.94 in 10.0 mi NNE 12.7 mph - N/A   Scattered Clouds
6:53 PM 77.0 °F - 64.9 °F 66% 29.95 in 10.0 mi Variable 6.9 mph - N/A   Scattered Clouds
7:53 PM 77.0 °F - 64.9 °F 66% 29.98 in 10.0 mi NNE 4.6 mph - N/A   Partly Cloudy
8:53 PM 75.9 °F - 64.9 °F 69% 29.99 in 10.0 mi NE 4.6 mph - N/A   Partly Cloudy
9:53 PM 75.9 °F - 64.9 °F 69% 29.99 in 10.0 mi NE 6.9 mph - N/A   Partly Cloudy
10:53 PM 75.0 °F - 64.9 °F 71% 29.99 in 10.0 mi NNE 3.5 mph - N/A   Partly Cloudy
11:53 PM 73.0 °F - 64.9 °F 76% 29.99 in 10.0 mi Calm Calm - N/A   Partly Cloudy